Location: Newark
(49.8348°N, 24.0280°E)
Time: 01:11:38
(UTC+00:00)

Explorer 7 - Pass Details

Date: 20 January 2020
Orbit: 485 x 679 km, 50.3° (Epoch: 27 February)

Event Time Altitude Azimuth Distance (km) Brightness Sun altitude
Rises 01:29:49 0° 265° (W) 2,556 - -44.5°
Reaches altitude 10° 01:31:57 10° 266° (W) 1,686 - -44.2°
Maximum altitude 01:35:46 84° 353° (N) 513 - -43.7°
Drops below altitude 10° 01:39:45 10° 84° (E) 1,761 - -43.1°
Exits shadow 01:41:31 - 85° (E) 2,478 10.9 -42.8°
Sets 01:42:01 0° 85° (E) 2,682 11.1 -42.7°
